Location: Mexico
(19.4000°N, 99.1500°W)
Time: 23:01:47
(UTC-06:00)

ISS - Pass Details

Date: 15 May 2019
Orbit: 407 x 410 km, 51.6° (Epoch: 23 May)

Event Time Altitude Azimuth Distance (km) Brightness Sun altitude
Rises 20:13:57 0° 200° (SSW) 2,312 -0.1 -15.8°
Reaches altitude 10° 20:16:10 10° 189° (S) 1,455 -1.2 -16.3°
Enters shadow 20:16:21 11° 188° (S) 1,387 -1.3 -16.3°
